Location: Buisson
(44.2787°N, 4.9969°E)
Time: 19:11:51
(UTC+00:00)

N. Korean satellite - Pass Details

Date: 30 September 2021
Orbit: 450 x 495 km, 97.3° (Epoch: 16 October)

Event Time Altitude Azimuth Distance (km) Brightness Sun altitude
Rises 04:18:47 0° 24° (NNE) 2,545 10.7 -14.7°
Reaches altitude 10° 04:21:05 10° 37° (NE) 1,669 10.0 -14.3°
Maximum altitude 04:24:08 26° 96° (E) 994 9.0 -13.8°
Drops below altitude 10° 04:27:12 10° 154° (SSE) 1,676 9.5 -13.2°
Sets 04:29:31 0° 167° (SSE) 2,557 10.3 -12.8°
